User: anonymous   Login
Location: Kott?ru
(16.6209°N, 80.6208°E)
Time: 22:31:15
(UTC+00:00)
Language:

ADEOS - Orbit

View from above orbital plane
View from above orbital plane
View from above satellite
View from above satellite

Ground track
Ground track

The orbit data is extracted from the following two-line orbital elements,

1 24277U 96046A   20327.93507584 -.00000006 +00000-0 +15827-4 0  9996
2 24277 098.8931 306.3793 0000197 288.0957 072.0202 14.29456126265252
Epoch (UTC): 22 November 2020 22:26:30
Eccentricity: 0.0000197
inclination: 98.8931°
perigee height: 793 km
apogee height: 793 km
right ascension of ascending node: 306.3793°
argument of perigee: 288.0957°
revolutions per day: 14.29456126
mean anomaly at epoch: 72.0202°
orbit number at epoch: 26525

The dashed part of the orbit path shows where the satellite is in the earth's shadow,  

DLR